Regional Weather Roundup
Issued by NWS Albany, NY

Home | Current Version | Previous Version | Text Only | Print | Product List | Glossary On
Versions: 1 2 3 4 5 6 7 8 9 10 11 12 13 14 15 16 17 18 19 20 21 22 23 24 25 26 27 28 29 30 31 32 33 34 35 36 37 38 39 40 41 42 43 44 45 46 47 48 49 50
000
ASUS41 KALY 250610
RWRALY

NEW YORK STATE HOURLY WEATHER ROUNDUP
NATIONAL WEATHER SERVICE ALBANY NY
100 AM EST SUN JAN 25 2015

NOTE: "FAIR" INDICATES FEW OR NO CLOUDS BELOW 12,000 FEET WITH NO
SIGNIFICANT WEATHER AND/OR NO OBSTRUCTIONS TO VISIBILITY.

NYZ032-033-038>043-046>054-057>066-NYZ062>081-250700-
EAST


CITY           SKY/WX    TMP DP  RH WIND       PRES   REMARKS
ALBANY         MOCLDY    33  26  75 W13       29.42R WCI  24
GLENS FALLS    CLOUDY    31  23  72 S7        29.36S WCI  24
POUGHKEEPSIE   CLOUDY    33  24  69 CALM      29.46R
MONTGOMERY     CLOUDY    34  25  69 W8        29.47R WCI  27
WHITE PLAINS   MOCLDY    33  24  69 W13       29.46R WCI  24
ISLIP          CLOUDY    34  26  72 W13       29.46R WCI  25
NEW YORK CITY  MOCLDY    36  24  62 NW17G23   29.50R WCI  26
CENTRAL PARK   CLOUDY    37  23  56 W12G20    29.52R WCI  29
$$

NYZ005>009-017-018-044>046-055-056-250700-
CENTRAL


CITY           SKY/WX    TMP DP  RH WIND       PRES   REMARKS
FULTON         CLOUDY    33  29  85 W15       29.45S WCI  23
SYRACUSE       FLURRIES  29  29 100 W14       29.46S WCI  18
ROME           FLURRIES  30  28  92 W16       29.45S WCI  19
ELMIRA         CLOUDY    32  25  75 W9        29.51S WCI  24
BINGHAMTON     FLURRIES  28  24  85 W14       29.44R WCI  17
MONTICELLO     CLOUDY    28  25  86 W12G17    29.45R WCI  18
$$

NYZ026>034-041>043-250700-
NORTH


CITY           SKY/WX    TMP DP  RH WIND       PRES   REMARKS
WATERTOWN      CLOUDY    34  30  85 W12       29.41S WCI  25
FORT DRUM      NOT AVBL
MASSENA        LGT SNOW  30  30 100 W13       29.35S FOG     WCI  20
SARANAC LAKE   LGT SNOW  26  24  92 W9        29.26S FOG     WCI  17
PLATTSBURGH    MOCLDY    31  24  75 VRB6      29.30S WCI  25
$$

NYZ001>004-010>016-019>021-250700-
WEST


CITY           SKY/WX    TMP DP  RH WIND       PRES   REMARKS
NIAGARA FALLS  CLOUDY    32  27  81 W16G23    29.55R WCI  21
BUFFALO        CLOUDY    32  29  88 W14       29.54R FOG     WCI  22
DUNKIRK        CLOUDY    32  31  96 W12G22    29.59R FOG     WCI  23
JAMESTOWN      CLOUDY    30  28  93 W12G18    29.55R WCI  21
WELLSVILLE     CLOUDY    27  24  89 W9G17     29.49F WCI  18
ROCHESTER      FLURRIES  33  29  85 W15G22    29.50R WCI  23
PENN YAN       CLOUDY    33  26  75 W13       29.49S WCI  24
$$

             KEY
       WCI = WIND CHILL INDEX
       VSB = VISIBILITY
       HX  = HEAT INDEX
$$


USA.gov is the U.S. government's official web portal to all federal, state and local government web resources and services.